| time (UTC) | temp C | wind direction | speed KPH | gust KPH | rain 1hr cm | rain 24hr cm | rain mn cm | humidity % | barometer mb |
| 20260504050004 | 19 | 183 | 4.8 | 17.7 | 0.00 | 0.00 | 0.00 | 71 | 1017.7 |
| 20260504044504 | 20 | 127 | 4.8 | 22.5 | 0.00 | 0.00 | 0.00 | 70 | 1017.7 |
| 20260504043004 | 20 | 185 | 6.4 | 19.3 | 0.00 | 0.00 | 0.00 | 69 | 1017.8 |
| 20260504041504 | 20 | 146 | 6.4 | 24.1 | 0.00 | 0.00 | 0.00 | 68 | 1017.8 |
| 20260504040008 | 20 | 171 | 4.8 | 16.1 | 0.00 | 0.00 | 0.00 | 67 | 1017.6 |
| 20260504034502 | 20 | 160 | 3.2 | 14.5 | 0.00 | 0.00 | 0.00 | 66 | 1017.9 |
| 20260504033001 | 20 | 170 | 6.4 | 14.5 | 0.00 | 0.00 | 0.00 | 65 | 1017.8 |
| 20260504031501 | 21 | 161 | 1.6 | 14.5 | 0.00 | 0.00 | 0.00 | 64 | 1017.6 |
| 20260504030101 | 21 | 167 | 4.8 | 12.9 | 0.00 | 0.00 | 0.00 | 63 | 1017.6 |
| 20260504024600 | 21 | 156 | 1.6 | 11.3 | 0.00 | 0.00 | 0.00 | 61 | 1017.4 |
| 20260504023103 | 21 | 139 | 3.2 | 11.3 | 0.00 | 0.00 | 0.00 | 60 | 1017.4 |
| 20260504021558 | 21 | 144 | 3.2 | 8.0 | 0.00 | 0.00 | 0.00 | 60 | 1017.4 |
| 20260504020100 | 21 | 146 | 0.0 | 0.0 | 0.00 | 0.00 | 0.00 | 62 | 1017.2 |
| 20260504014605 | 21 | 146 | 0.0 | 0.0 | 0.00 | 0.00 | 0.00 | 60 | 1016.9 |
| 20260504013101 | 21 | 146 | 0.0 | 1.6 | 0.00 | 0.00 | 0.00 | 58 | 1016.9 |
| 20260504011558 | 22 | 146 | 0.0 | 3.2 | 0.00 | 0.00 | 0.00 | 55 | 1016.8 |
| 20260504010056 | 23 | 146 | 1.6 | 3.2 | 0.00 | 0.00 | 0.00 | 53 | 1016.7 |
| 20260504004555 | 23 | 146 | 0.0 | 6.4 | 0.00 | 0.00 | 0.00 | 50 | 1016.9 |
| 20260504003102 | 23 | 145 | 1.6 | 8.0 | 0.00 | 0.00 | 0.00 | 48 | 1016.8 |
| 20260504001606 | 24 | 155 | 3.2 | 11.3 | 0.00 | 0.00 | 0.00 | 46 | 1016.8 |
| 20260504000111 | 25 | 158 | 3.2 | 12.9 | 0.00 | 0.00 | 0.00 | 45 | 1016.7 |
| 20260503234550 | 25 | 173 | 6.4 | 16.1 | 0.00 | 0.00 | 0.00 | 44 | 1017.1 |
| 20260503233048 | 25 | 144 | 4.8 | 11.3 | 0.00 | 0.00 | 0.00 | 43 | 1017.3 |
| 20260503231548 | 25 | 184 | 11.3 | 19.3 | 0.00 | 0.00 | 0.00 | 40 | 1017.4 |
| 20260503230047 | 25 | 131 | 3.2 | 17.7 | 0.00 | 0.00 | 0.00 | 41 | 1017.5 |
| 20260503224547 | 26 | 182 | 8.0 | 16.1 | 0.00 | 0.00 | 0.00 | 42 | 1017.6 |
| 20260503223044 | 25 | 173 | 6.4 | 14.5 | 0.00 | 0.00 | 0.00 | 43 | 1017.6 |
| 20260503221551 | 25 | 130 | 6.4 | 17.7 | 0.00 | 0.00 | 0.00 | 45 | 1017.9 |
| 20260503220040 | 25 | 190 | 6.4 | 14.5 | 0.00 | 0.00 | 0.00 | 42 | 1018.3 |
| 20260503214537 | 25 | 174 | 4.8 | 37.0 | 0.00 | 0.00 | 0.00 | 44 | 1018.4 |
| 20260503213034 | 25 | 137 | 8.0 | 14.5 | 0.00 | 0.00 | 0.00 | 44 | 1018.8 |
| 20260503211532 | 25 | 127 | 8.0 | 14.5 | 0.00 | 0.00 | 0.00 | 45 | 1019.2 |
| 20260503210030 | 25 | 121 | 3.2 | 12.9 | 0.00 | 0.00 | 0.00 | 46 | 1019.3 |
| 20260503204530 | 25 | 159 | 3.2 | 11.3 | 0.00 | 0.00 | 0.00 | 45 | 1019.8 |
| 20260503203027 | 25 | 167 | 4.8 | 16.1 | 0.00 | 0.00 | 0.00 | 43 | 1020.2 |
| 20260503201523 | 25 | 188 | 4.8 | 16.1 | 0.00 | 0.00 | 0.00 | 42 | 1020.3 |
| 20260503200021 | 24 | 139 | 6.4 | 17.7 | 0.00 | 0.00 | 0.00 | 44 | 1020.6 |
| 20260503194519 | 25 | 190 | 3.2 | 17.7 | 0.00 | 0.00 | 0.00 | 44 | 1021.0 |
| 20260503193034 | 24 | 182 | 4.8 | 16.1 | 0.00 | 0.00 | 0.00 | 43 | 1021.4 |
| 20260503191515 | 24 | 192 | 6.4 | 16.1 | 0.00 | 0.00 | 0.00 | 45 | 1021.2 |
| 20260503190012 | 24 | 207 | 6.4 | 14.5 | 0.00 | 0.00 | 0.00 | 43 | 1021.5 |
| 20260503184520 | 24 | 155 | 8.0 | 16.1 | 0.00 | 0.00 | 0.00 | 48 | 1021.8 |
| 20260503183011 | 23 | 183 | 6.4 | 17.7 | 0.00 | 0.00 | 0.00 | 47 | 1021.9 |
| 20260503181507 | 23 | 159 | 4.8 | 14.5 | 0.00 | 0.00 | 0.00 | 47 | 1022.4 |
| 20260503180015 | 23 | 195 | 4.8 | 14.5 | 0.00 | 0.00 | 0.00 | 48 | 1022.5 |
| 20260503174506 | 23 | 179 | 6.4 | 16.1 | 0.00 | 0.00 | 0.00 | 50 | 1022.9 |
| 20260503173011 | 23 | 197 | 4.8 | 9.7 | 0.00 | 0.00 | 0.00 | 48 | 1023.1 |
| 20260503171600 | 23 | 195 | 4.8 | 14.5 | 0.00 | 0.00 | 0.00 | 52 | 1023.5 |
| 20260503090105 | 12 | 117 | 0.0 | 0.0 | 0.00 | 0.00 | 0.00 | 86 | 1021.6 |
| 20260503081552 | 12 | 117 | 0.0 | 0.0 | 0.00 | 0.00 | 0.00 | 86 | 1021.8 |
| 20260503071552 | 12 | 117 | 0.0 | 0.0 | 0.00 | 0.00 | 0.00 | 85 | 1022.5 |
| 20260503070103 | 13 | 117 | 0.0 | 0.0 | 0.00 | 0.00 | 0.00 | 85 | 1022.7 |
| 20260503054541 | 13 | 117 | 0.0 | 0.0 | 0.00 | 0.00 | 0.00 | 82 | 1022.9 |